TimeCST,TemperatureF,Dew PointF,Humidity,Sea Level PressureIn,VisibilityMPH,Wind Direction,Wind SpeedMPH,Gust SpeedMPH,PrecipitationIn,Events,Conditions,WindDirDegrees,DateUTC
12:56 AM,48.0,39.0,71,30.18,10.0,ESE,3.5,-,N/A,,Clear,120,2011-11-13 06:56:00
1:56 AM,48.0,39.9,74,30.18,10.0,Calm,Calm,-,0.00,,Clear,0,2011-11-13 07:56:00
2:56 AM,48.9,42.1,77,30.17,10.0,Calm,Calm,-,0.00,,Clear,0,2011-11-13 08:56:00
3:56 AM,48.0,42.1,80,30.18,10.0,Calm,Calm,-,N/A,,Clear,0,2011-11-13 09:56:00
4:56 AM,46.9,41.0,80,30.19,10.0,Calm,Calm,-,0.00,,Clear,0,2011-11-13 10:56:00
5:56 AM,46.9,42.1,83,30.19,10.0,Calm,Calm,-,0.00,,Clear,0,2011-11-13 11:56:00
6:56 AM,50.0,42.1,74,30.20,10.0,East,3.5,-,0.00,Rain,Light Rain,90,2011-11-13 12:56:00
7:56 AM,52.0,42.1,69,30.21,10.0,Calm,Calm,-,0.00,Rain,Light Rain,0,2011-11-13 13:56:00
8:56 AM,59.0,46.0,62,30.21,10.0,SSE,4.6,-,0.00,Rain,Light Rain,150,2011-11-13 14:56:00
9:56 AM,66.0,51.1,59,30.20,10.0,South,8.1,-,0.00,Rain,Light Rain,170,2011-11-13 15:56:00
10:53 AM,68.0,54.0,61,30.18,10.0,SE,6.9,-,0.00,Rain,Light Rain,130,2011-11-13 16:53:00
10:56 AM,70.0,54.0,57,30.18,10.0,South,8.1,-,0.00,Rain,Light Rain,170,2011-11-13 16:56:00
11:06 AM,71.1,55.0,57,30.17,10.0,South,10.4,20.7,0.00,Rain,Light Rain,180,2011-11-13 17:06:00
11:56 AM,72.0,55.9,57,30.14,10.0,SSE,11.5,20.7,0.00,Rain,Light Rain,160,2011-11-13 17:56:00
12:56 PM,73.0,55.9,55,30.10,10.0,South,9.2,-,0.00,Rain,Light Rain,180,2011-11-13 18:56:00
1:56 PM,73.0,55.9,55,30.09,10.0,SSE,8.1,-,0.00,Rain,Light Rain,160,2011-11-13 19:56:00
2:56 PM,72.0,57.0,59,30.07,10.0,SSE,9.2,-,0.00,Rain,Light Rain,150,2011-11-13 20:56:00
3:56 PM,72.0,57.0,59,30.08,10.0,SSE,9.2,-,0.00,Rain,Light Rain,150,2011-11-13 21:56:00
4:56 PM,69.1,57.0,65,30.08,10.0,SSE,5.8,-,0.00,Rain,Light Rain,150,2011-11-13 22:56:00
5:56 PM,66.0,57.0,73,30.09,10.0,SSE,5.8,-,0.00,Rain,Light Rain,160,2011-11-13 23:56:00
6:56 PM,64.0,57.0,78,30.11,10.0,South,3.5,-,0.00,,Clear,180,2011-11-14 00:56:00
7:56 PM,63.0,57.9,84,30.11,10.0,South,4.6,-,N/A,,Clear,170,2011-11-14 01:56:00
8:56 PM,62.1,57.0,84,30.10,10.0,South,5.8,-,0.00,,Clear,170,2011-11-14 02:56:00
9:56 PM,62.1,55.9,80,30.11,10.0,South,4.6,-,N/A,,Clear,170,2011-11-14 03:56:00
10:56 PM,61.0,55.9,83,30.10,10.0,SSE,5.8,-,N/A,,Partly Cloudy,150,2011-11-14 04:56:00
11:56 PM,61.0,57.0,87,30.09,10.0,South,4.6,-,0.00,,Clear,170,2011-11-14 05:56:00